Location: Dentlein
(49.1477°N, 10.4231°E)
Time: 10:18:43
(UTC+00:00)

Cosmos 1346 Rocket - Pass Details

Date: 23 May 2024
Orbit: 508 x 521 km, 81.2° (Epoch: 15 June)

Event Time Altitude Azimuth Distance (km) Brightness Sun altitude
Rises 00:38:58 0° 342° (NNW) 2,662 7.2 -17.8°
Reaches altitude 10° 00:41:10 10° 336° (NNW) 1,770 6.0 -17.6°
Maximum altitude 00:44:52 43° 264° (W) 745 3.2 -17.4°
Enters shadow 00:45:42 37° 230° (SW) 826 3.2 -17.4°
